Back to catalog

ATLAS 5 CENTAUR DEB

AliveHEO
NORAD 44009·DEBRIS·🇺🇸 United States

Launched Sep 17, 2014 from Cape Canaveral Space Force Station

Loading…

Next Passes (next 24 hours)

TLE

FreshSource: Space-Track

Epoch: Sep 9, 2026, 05:13 UTC

1 44009U 14055BQ  26252.21766967 -.00000163  00000-0  00000-0 0  9994
2 44009  20.9421  98.8166 4985825 248.7607  52.2548  1.91632824 55563

Track ATLAS 5 CENTAUR DEB in real time with AllMySat

Download on the App Store